When you browse on this site, cookies collect data to enhance your experience and personalize the content and advertising you see.
Visit our Privacy Policy to learn more. By continuing to use the site, you agree to this use of cookies and data.
  • In Hungary
  • List of Countries
  • For 7 days
  • Water Temperature
  • Satellite Maps
  • Weather Map
  • News
  • Weather Widgets
  • user-avatar
    Login

    Hourly Weather Tottori

    Today, 18 January, Friday

    Time Temperature Precipitation Wind Pressure Humidity
    00:00 +2°C° 0.4 mm 3 mps 732 mmHg 86%
    01:00 +2°C° 0.4 mm 3 mps 732 mmHg 88%
    02:00 +1°C° 0.4 mm 3 mps 733 mmHg 90%
    03:00 +2°C° 0 mm 2 mps 733 mmHg 92%
    04:00 +2°C° 0.3 mm 2 mps 733 mmHg 92%
    05:00 +2°C° 0.3 mm 2 mps 734 mmHg 92%
    06:00 +2°C° 0.3 mm 2 mps 734 mmHg 92%
    07:00 +2°C° 0.1 mm 2 mps 734 mmHg 90%
    08:00 +4°C° 0.1 mm 1 mps 735 mmHg 87%
    09:00 +4°C° 0 mm 1 mps 735 mmHg 82%
    10:00 +5°C° 0.1 mm 1 mps 735 mmHg 78%
    11:00 +5°C° 0.1 mm 2 mps 735 mmHg 75%
    12:00 +5°C° 0.1 mm 2 mps 735 mmHg 71%
    13:00 +6°C° 0.1 mm 2 mps 735 mmHg 71%
    14:00 +6°C° 0.1 mm 2 mps 735 mmHg 70%
    15:00 +6°C° 0.1 mm 2 mps 735 mmHg 69%
    16:00 +5°C° 0.1 mm 2 mps 735 mmHg 76%
    17:00 +5°C° 0.1 mm 1 mps 735 mmHg 82%
    18:00 +4°C° 0.1 mm 1 mps 735 mmHg 88%
    19:00 +4°C° 0 mm 1 mps 735 mmHg 89%
    20:00 +3°C° 0 mm 1 mps 735 mmHg 90%
    21:00 +2°C° 0 mm 0 mps 735 mmHg 91%
    22:00 +2°C° 0 mm 0 mps 735 mmHg 91%
    23:00 +1°C° 0 mm 0 mps 735 mmHg 91%

    Tomorrow, 19 January, Saturday

    Time Temperature Precipitation Wind Pressure Humidity
    00:00 +2°C° 0 mm 1 mps 735 mmHg 92%
    01:00 +2°C° 0 mm 1 mps 735 mmHg 91%
    02:00 +2°C° 0 mm 1 mps 735 mmHg 91%
    03:00 +1°C° 0 mm 1 mps 735 mmHg 91%
    04:00 +1°C° 0 mm 1 mps 735 mmHg 90%
    05:00 +1°C° 0 mm 1 mps 735 mmHg 89%
    06:00 +1°C° 0 mm 1 mps 735 mmHg 88%
    07:00 +3°C° 0 mm 1 mps 735 mmHg 82%
    08:00 +4°C° 0 mm 1 mps 735 mmHg 76%
    09:00 +6°C° 0 mm 1 mps 735 mmHg 70%
    10:00 +7°C° 0 mm 1 mps 735 mmHg 64%
    11:00 +8°C° 0 mm 2 mps 735 mmHg 59%
    12:00 +9°C° 0 mm 2 mps 735 mmHg 53%
    13:00 +10°C° 0 mm 2 mps 734 mmHg 53%
    14:00 +10°C° 0 mm 2 mps 734 mmHg 54%
    15:00 +10°C° 0 mm 2 mps 734 mmHg 54%
    16:00 +9°C° 0 mm 2 mps 733 mmHg 61%
    17:00 +8°C° 0 mm 1 mps 733 mmHg 68%
    18:00 +7°C° 0 mm 1 mps 733 mmHg 75%
    19:00 +6°C° 0 mm 1 mps 733 mmHg 78%
    20:00 +6°C° 0 mm 1 mps 733 mmHg 81%
    21:00 +5°C° 0 mm 1 mps 733 mmHg 83%
    22:00 +5°C° 0 mm 1 mps 732 mmHg 85%
    23:00 +4°C° 0 mm 1 mps 732 mmHg 86%

    Day after tomorrow, 20 January, Sunday

    Time Temperature Precipitation Wind Pressure Humidity
    00:00 +4°C° 0 mm 1 mps 731 mmHg 88%
    01:00 +4°C° 0.2 mm 1 mps 731 mmHg 88%
    02:00 +5°C° 0.2 mm 1 mps 730 mmHg 88%
    03:00 +5°C° 0.2 mm 1 mps 730 mmHg 88%
    04:00 +5°C° 0.5 mm 1 mps 730 mmHg 90%
    05:00 +6°C° 0.5 mm 1 mps 729 mmHg 91%
    06:00 +6°C° 0.5 mm 1 mps 729 mmHg 93%
    07:00 +6°C° 0.4 mm 1 mps 729 mmHg 93%
    08:00 +6°C° 0.4 mm 1 mps 728 mmHg 92%
    09:00 +7°C° 0.4 mm 1 mps 728 mmHg 92%
    10:00 +6°C° 0.1 mm 2 mps 728 mmHg 88%
    11:00 +7°C° 0.1 mm 3 mps 728 mmHg 84%
    12:00 +7°C° 0.1 mm 4 mps 728 mmHg 79%
    13:00 +7°C° 0 mm 5 mps 727 mmHg 74%
    14:00 +7°C° 0 mm 6 mps 727 mmHg 68%
    15:00 +6°C° 0 mm 7 mps 727 mmHg 63%
    16:00 +4°C° 0 mm 6 mps 727 mmHg 68%
    17:00 +3°C° 0 mm 6 mps 728 mmHg 73%
    18:00 +2°C° 0 mm 5 mps 728 mmHg 78%
    19:00 +1°C° 0.1 mm 5 mps 728 mmHg 79%
    20:00 +1°C° 0.1 mm 5 mps 729 mmHg 80%
    21:00 0°C° 0.1 mm 4 mps 729 mmHg 81%
    22:00 0°C° 0.5 mm 4 mps 729 mmHg 82%
    23:00 0°C° 0.5 mm 4 mps 730 mmHg 84%

    21 January, Monday

    Time Temperature Precipitation Wind Pressure Humidity
    00:00 0°C° 0.5 mm 4 mps 730 mmHg 85%
    01:00 +1°C° 0.4 mm 3 mps 730 mmHg 86%
    02:00 0°C° 0.4 mm 3 mps 730 mmHg 86%
    03:00 0°C° 0.4 mm 3 mps 730 mmHg 87%
    04:00 0°C° 0.3 mm 3 mps 730 mmHg 87%
    05:00 +1°C° 0.3 mm 2 mps 730 mmHg 87%
    06:00 +1°C° 0.3 mm 2 mps 730 mmHg 87%
    07:00 +1°C° 0.1 mm 2 mps 731 mmHg 84%
    08:00 +2°C° 0.1 mm 2 mps 731 mmHg 81%
    09:00 +3°C° 0.1 mm 1 mps 731 mmHg 78%
    10:00 +3°C° 0.2 mm 2 mps 731 mmHg 75%
    11:00 +3°C° 0.2 mm 3 mps 731 mmHg 72%
    12:00 +3°C° 0.2 mm 4 mps 731 mmHg 68%
    13:00 +4°C° 0.1 mm 4 mps 730 mmHg 68%
    14:00 +4°C° 0.1 mm 4 mps 730 mmHg 67%
    15:00 +4°C° 0.1 mm 4 mps 730 mmHg 67%
    16:00 +3°C° 0 mm 4 mps 729 mmHg 72%
    17:00 +1°C° 0 mm 3 mps 729 mmHg 78%
    18:00 +1°C° 0 mm 2 mps 729 mmHg 83%
    19:00 +1°C° 0 mm 2 mps 729 mmHg 84%
    20:00 -1°C° 0 mm 2 mps 729 mmHg 85%
    21:00 -1°C° 0 mm 2 mps 729 mmHg 87%
    22:00 -1°C° 0 mm 2 mps 729 mmHg 87%
    23:00 -1°C° 0 mm 2 mps 729 mmHg 87%

    22 January, Tuesday

    Time Temperature Precipitation Wind Pressure Humidity
    00:00 -1°C° 0 mm 2 mps 729 mmHg 86%
    01:00 -1°C° 0 mm 2 mps 728 mmHg 85%
    02:00 -1°C° 0 mm 2 mps 728 mmHg 83%
    03:00 -1°C° 0 mm 2 mps 727 mmHg 82%
    04:00 +1°C° 0.1 mm 2 mps 727 mmHg 83%
    05:00 0°C° 0.1 mm 3 mps 727 mmHg 85%
    06:00 0°C° 0.1 mm 3 mps 726 mmHg 87%
    07:00 +1°C° 0.1 mm 3 mps 727 mmHg 83%
    08:00 +1°C° 0.1 mm 4 mps 727 mmHg 79%
    09:00 +2°C° 0.1 mm 5 mps 727 mmHg 76%
    10:00 +2°C° 0.2 mm 6 mps 727 mmHg 74%
    11:00 +3°C° 0.2 mm 6 mps 728 mmHg 71%
    12:00 +3°C° 0.2 mm 6 mps 728 mmHg 69%
    13:00 +3°C° 0.2 mm 6 mps 728 mmHg 70%
    14:00 +3°C° 0.2 mm 5 mps 727 mmHg 70%
    15:00 +2°C° 0.2 mm 5 mps 727 mmHg 70%
    16:00 +3°C° 0.1 mm 4 mps 728 mmHg 75%
    17:00 +2°C° 0.1 mm 3 mps 728 mmHg 80%
    18:00 +2°C° 0.1 mm 2 mps 728 mmHg 85%
    19:00 +3°C° 0.1 mm 1 mps 728 mmHg 87%
    20:00 +2°C° 0.1 mm 1 mps 729 mmHg 89%
    21:00 +2°C° 0.1 mm 1 mps 729 mmHg 91%
    22:00 +2°C° 0.1 mm 1 mps 729 mmHg 92%
    23:00 +1°C° 0.1 mm 1 mps 729 mmHg 92%

    23 January, Wednesday

    Time Temperature Precipitation Wind Pressure Humidity
    00:00 +1°C° 0.1 mm 1 mps 729 mmHg 93%
    01:00 +1°C° 0 mm 1 mps 728 mmHg 92%
    02:00 0°C° 0 mm 1 mps 728 mmHg 91%
    03:00 0°C° 0 mm 1 mps 728 mmHg 91%
    04:00 -2°C° 0 mm 2 mps 728 mmHg 90%
    05:00 -2°C° 0 mm 2 mps 727 mmHg 90%
    06:00 -2°C° 0 mm 2 mps 727 mmHg 90%
    07:00 -1°C° 0 mm 3 mps 728 mmHg 84%
    08:00 +1°C° 0 mm 3 mps 728 mmHg 78%
    09:00 +1°C° 0 mm 4 mps 728 mmHg 73%
    10:00 +2°C° 0.1 mm 5 mps 728 mmHg 70%
    11:00 +2°C° 0.1 mm 7 mps 728 mmHg 66%
    12:00 +2°C° 0.1 mm 8 mps 728 mmHg 63%
    13:00 +3°C° 0.2 mm 7 mps 728 mmHg 66%
    14:00 +2°C° 0.2 mm 7 mps 728 mmHg 69%
    15:00 +2°C° 0.2 mm 7 mps 728 mmHg 72%
    16:00 +1°C° 0.2 mm 6 mps 729 mmHg 74%
    17:00 +1°C° 0.2 mm 6 mps 730 mmHg 75%
    18:00 0°C° 0.2 mm 5 mps 730 mmHg 77%
    19:00 0°C° 0.2 mm 5 mps 731 mmHg 80%
    20:00 -1°C° 0.2 mm 4 mps 732 mmHg 83%
    21:00 -1°C° 0.2 mm 4 mps 732 mmHg 85%
    22:00 -1°C° 0.3 mm 4 mps 733 mmHg 85%
    23:00 -1°C° 0.3 mm 4 mps 733 mmHg 84%
    Show more